You are not logged in, Click here to log in
ICAO: RJFM Country: 日本宮崎縣宮崎市
Latitude: 31.8762 Longitude: 131.447
Total Arrivals: 15 Total Departures: 19
Latest Arrival: 6J68 (ROAH-RJFM)鈺友. 陳 Latest Departure: EH348 (RJFM-RJGG)鈺友. 陳
Scenery:
METAR : RJFM 231100Z 25009KT 9999 FEW020 SCT040 BKN160 29/24 Q1010

宮崎機場KMI